CZ-4C DEB, 42671

Orbit data source: Space-Track

CZ-4C DEB, 42671 is space debris in SSO originally from a launch on Thu, 26 Nov 2015 UTC launched from the Taiyaun Space Center, China (TSC). Debris objects in space refer to the collection of defunct objects orbiting the Earth. Examples of debris include non-operational satellites, rocket bodies, and fragments generated from explosions, collisions, or faulty payload assembly.

Loading next visibility...
Identifier
42671, 2015-069D
Orbit
SSO
Last TLE update
6 hours ago
Origin
Manufacturer
Unknown
Mission
Spacecraft
Bus & Motor
Unknown
Mass
Unknown
Launch date (UTC)
2015-11-26 (10 years ago)
Launch vehicle
Unknown
Launch site
Taiyaun Space Center, China (TSC)
Object type
Payload
Rocket body
Debris
Shape & HBR
Unknown
Radar Cross Section
Small (<0.1 m²)

Expand to show TLE details & history

TLE from 6 hours ago
0 CZ-4C DEB
1 42671U 15069D   25183.61475849  .00004243  00000-0  59300-3 0  9997
2 42671  97.8302  51.8832 0122645  61.1135 300.2314 14.73026994504956
Epoch: 2025-07-02T14:45Z
TLE epoch observation values (Epoch: 2025-07-02T14:45:15.133Z)
Latitude
-0.00003°
Longitude
-90.32317°
Altitude
611.815 km
Speed
7.576 km/s
True Right ascension
03h 27m 31s
True Declination
0° 00' 00"
Sunlit
Object was in daylight at epoch
Visualization orbit readout
Latitude
23.11766°
Longitude
93.24883°
Altitude
662.732 km
Speed
7.523 km/s
Apparent Right ascension
17h 32m 41s
Apparent Declination
-7° 50' 33"
Sunlit
Object is in full shadow
Visualization observer readout
Local Sidereal Time
08:04:32
Azimuth
56.949° ENE
Elevation
-43.362°
Doppler factor
1
Orbital elements
Apogee altitude
734.646 km
Perigee altitude
562.29 km
Semi-major axis
7,026.605 km
Eccentricity
0.01226
Inclination
97.8302°
RAAN
51.8832°
Arg. of periapsis
61.1135°
True anomaly
Unknown
Mean anomaly
300.2314°
Eccentric anomaly
Unknown
Mean motion
3.68489 °/min
Orbital period
97.7 mins
BSTAR
0.000593
Loading maneuver chart data...
Loading SW <> Apogee altitude chart data...
Loading historical data...
Loading historical data...
Loading historical data...
Loading historical data...
Loading historical data...
Loading historical data...
Loading historical data...
Other satellites on launch #69 in the year 2015 (2015-11-26 UTC)

CZ-4C DEB Visibility forecast

Observer location: undefined°, undefined°

Span
Click to sort rows by Start time (UTC) header in descending order
Start Az.
Max El. time (UTC)
Max El. Az.
Max El.
End time (UTC)
End Az.
6 mins2025-07-03 04:22:31.702Z357.892° N2025-07-03 04:24:31.702Z306.901° NW41.148°2025-07-03 04:28:31.702Z206.493° SW
6 mins2025-07-03 15:20:31.702Z172.888° S2025-07-03 15:23:31.702Z312.521° NW43.228°2025-07-03 15:26:31.702Z344.033° N
|